Weather History for Jackson, WY

Change the Weather History Date:

Sunday, March 17, 2013

  Actual Average Record
Temperature  
Mean Temperature 28 °F -  
Max Temperature 35 °F 40 °F 57 °F (2007)
Min Temperature 21 °F 16 °F -7 °F (1988)
Degree Days  
Heating Degree Days 37    
Moisture  
Dew Point 18 °F    
Average Humidity 69    
Maximum Humidity 100    
Minimum Humidity 40    
Precipitation  
Precipitation 0.02 in - - ()
Sea Level Pressure  
Sea Level Pressure 29.73 in    
Wind  
Wind Speed 14 mph (SW)    
Max Wind Speed 29 mph    
Max Gust Speed 41 mph    
Visibility 6 miles    
Events Snow    
Averages and records for this station are not official NWS values.
T = Trace of Precipitation, MM = Missing Value Source: NWS Daily Summary

Daily Weather History Graph

Daily Weather History Graph

Search for Another Location

Airport:

Trip Planner

Search our weather history database for the weather conditions in past years. The results will help you decide how hot, cold, wet, or windy it might be!

Date:

Astronomy

Mar. 17, 2013 Rise Set
Actual Time 7:30 AM MDT 7:32 PM MDT
Civil Twilight 7:02 AM MDT 8:00 PM MDT
Nautical Twilight 6:29 AM MDT 8:34 PM MDT
Astronomical Twilight 5:55 AM MDT 9:08 PM MDT
Moon 10:36 AM MDT (3/17) 12:53 AM MDT (3/17)
Length of Visible Light 12h 58m
Length of Day
12h 01m
Waxing Crescent, 32% of the Moon is Illuminated
Mar 17
Waxing Crescent
Mar 19
First Quarter
Mar 27
Full
Apr 2
Last Quarter
Apr 10
New

Hourly Weather History & Observations

Time (MDT) Temp. Windchill Dew Point Humidity Pressure Visibility Wind Dir Wind Speed Gust Speed Precip Events Conditions
12:15 AM 35.6 °F 27.1 °F 26.6 °F 70% 29.74 in 10.0 mi SSW 12.7 mph 20.7 mph N/A   Overcast
12:35 AM 35.6 °F 28.0 °F 26.6 °F 70% 29.74 in 10.0 mi SSW 10.4 mph - N/A   Overcast
12:55 AM 33.8 °F 22.8 °F 30.2 °F 87% 29.75 in 5.0 mi SSW 18.4 mph 24.2 mph N/A   Mostly Cloudy
1:15 AM 33.8 °F 23.2 °F 30.2 °F 87% 29.73 in 2.5 mi South 17.3 mph - N/A   Overcast
1:35 AM 32.0 °F 21.2 °F 32.0 °F 100% 29.70 in 2.0 mi South 16.1 mph - N/A   Overcast
1:55 AM 32.0 °F 24.8 °F 32.0 °F 100% 29.70 in 4.0 mi SSW 8.1 mph - N/A   Overcast
2:15 AM 30.2 °F 20.8 °F 30.2 °F 100% 29.69 in 0.8 mi South 11.5 mph - N/A   Overcast
2:35 AM 30.2 °F 21.9 °F 30.2 °F 100% 29.69 in 1.2 mi SSW 9.2 mph - N/A   Overcast
2:55 AM 30.2 °F 19.8 °F 30.2 °F 100% 29.67 in 4.0 mi South 13.8 mph - N/A   Overcast
3:15 AM 32.0 °F 21.2 °F 32.0 °F 100% 29.65 in 5.0 mi South 16.1 mph - 0.01 in   Overcast
3:55 AM 32.0 °F 20.8 °F 32.0 °F 100% 29.65 in 3.0 mi South 17.3 mph 21.9 mph 0.02 in   Overcast
4:15 AM 33.8 °F 23.2 °F 26.6 °F 75% 29.64 in 10.0 mi SSW 17.3 mph 24.2 mph N/A   Mostly Cloudy
4:35 AM 33.8 °F 22.5 °F 24.8 °F 70% 29.64 in 10.0 mi SW 19.6 mph 27.6 mph N/A   Overcast
4:55 AM 32.0 °F 18.9 °F 24.8 °F 75% 29.63 in 9.0 mi SW 24.2 mph 32.2 mph N/A   Mostly Cloudy
5:15 AM 33.8 °F 21.3 °F 19.4 °F 56% 29.62 in 3.0 mi SW 24.2 mph 36.8 mph N/A   Mostly Cloudy
5:35 AM 32.0 °F 18.4 °F 19.4 °F 60% 29.62 in 3.0 mi SW 26.5 mph 40.3 mph N/A   Mostly Cloudy
5:55 AM 32.0 °F 19.8 °F 17.6 °F 55% 29.63 in 5.0 mi SW 20.7 mph 38.0 mph N/A   Partly Cloudy
6:15 AM 30.2 °F 15.9 °F 15.8 °F 55% 29.61 in 4.0 mi SW 26.5 mph 38.0 mph N/A   Clear
6:35 AM 30.2 °F 16.2 °F 14.0 °F 51% 29.62 in 3.0 mi SW 25.3 mph 41.4 mph N/A   Clear
7:51 AM 28.4 °F 13.3 °F 17.6 °F 64% 29.60 in 10.0 mi SW 27.6 mph 35.7 mph N/A   Mostly Cloudy
8:51 AM 28.4 °F 15.4 °F 17.6 °F 64% 29.63 in 10.0 mi SSW 19.6 mph 32.2 mph N/A   Mostly Cloudy
9:52 AM 26.6 °F 10.6 °F 14.0 °F 59% 29.60 in 8.0 mi SSW 28.8 mph 41.4 mph N/A   Scattered Clouds
10:51 AM 24.8 °F 11.9 °F 21.2 °F 86% 29.65 in 4.0 mi South 16.1 mph 23.0 mph N/A   Overcast
11:03 AM 24.8 °F 11.1 °F 21.2 °F 86% 29.66 in 0.5 mi SW 18.4 mph 24.2 mph N/A Snow Snow
11:51 AM 21.2 °F 12.6 °F 17.6 °F 86% 29.72 in 0.5 mi WSW 6.9 mph - N/A Snow Snow
12:00 PM 21.2 °F - 17.6 °F 86% 29.72 in 0.8 mi Calm Calm - N/A Snow Light Snow
12:57 PM 23.0 °F 17.0 °F 15.8 °F 74% 29.75 in 2.0 mi South 4.6 mph - N/A   Overcast
1:22 PM 21.2 °F 7.3 °F 19.4 °F 93% 29.75 in 5.0 mi ESE 16.1 mph 23.0 mph N/A   Overcast
1:51 PM 24.8 °F - 15.8 °F 69% 29.76 in 4.0 mi Calm Calm - N/A Snow Light Snow
2:15 PM 21.2 °F 9.5 °F 17.6 °F 86% 29.79 in 0.8 mi WSW 11.5 mph 18.4 mph N/A Snow Light Snow
2:35 PM 24.8 °F 12.9 °F 12.2 °F 59% 29.77 in 8.0 mi WSW 13.8 mph 25.3 mph N/A   Mostly Cloudy
2:57 PM 26.6 °F 11.1 °F 6.8 °F 43% 29.75 in 10.0 mi West 26.5 mph 35.7 mph N/A   Mostly Cloudy
3:57 PM 26.6 °F 11.4 °F 8.6 °F 47% 29.76 in 8.0 mi WSW 25.3 mph 34.5 mph N/A   Mostly Cloudy
4:54 PM 26.6 °F 15.2 °F 5.0 °F 40% 29.78 in 10.0 mi West 13.8 mph 20.7 mph N/A   Partly Cloudy
5:55 PM 24.8 °F 11.1 °F 6.8 °F 46% 29.79 in 10.0 mi West 18.4 mph 27.6 mph N/A   Mostly Cloudy
6:57 PM 24.8 °F 17.9 °F 5.0 °F 43% 29.83 in 10.0 mi WSW 5.8 mph - N/A   Scattered Clouds
7:54 PM 24.8 °F 15.3 °F 5.0 °F 43% 29.85 in 10.0 mi WSW 9.2 mph - N/A   Partly Cloudy
8:51 PM 24.8 °F 16.9 °F 6.8 °F 46% 29.86 in 10.0 mi SSW 6.9 mph 16.1 mph N/A   Scattered Clouds
8:55 PM 24.8 °F 16.9 °F 6.8 °F 46% 29.86 in 10.0 mi SSE 6.9 mph - N/A   Scattered Clouds
9:15 PM 24.8 °F 19.1 °F 8.6 °F 50% 29.86 in 10.0 mi South 4.6 mph - N/A   Partly Cloudy
9:35 PM 23.0 °F - 8.6 °F 54% 29.86 in 10.0 mi Calm Calm - N/A   Mostly Cloudy
10:35 PM 23.0 °F - 10.4 °F 59% 29.88 in 10.0 mi Calm Calm - N/A   Overcast
10:55 PM 21.2 °F 16.4 °F 10.4 °F 63% 29.88 in 10.0 mi NNW 3.5 mph - N/A   Overcast
11:15 PM 23.0 °F 17.0 °F 10.4 °F 59% 29.89 in 10.0 mi SW 4.6 mph - N/A   Overcast
11:35 PM 24.8 °F 15.3 °F 12.2 °F 59% 29.89 in 10.0 mi SSW 9.2 mph - N/A   Overcast
11:55 PM 24.8 °F 16.1 °F 14.0 °F 64% 29.89 in 10.0 mi SSW 8.1 mph - N/A   Overcast